Simultaneous Nadir Overpasses (SNOs) Predictions

Prediction of SNOs between GOES-15 and METOP-A Satellite Orbit:

Table of predicted SNOs for the next 14.0 days since TLE Epoch: 8/11/2016
Index Date Time (GOES-15) GOES-15 Lat,Lon METOP-A Lat,Lon Distance(km) Time Diff (sec)
1 08/12/2016 06:39:39 -0.05,-134.37 -0.67,-137.23 325.24 80
2 08/13/2016 06:16:19 -0.03,-134.32 0.41,-132.23 237.41 80
3 08/14/2016 18:37:49 0.06,-134.24 0.65,-136.78 289.46 80
4 08/15/2016 18:14:30 0.04,-134.18 -0.48,-131.79 272.72 80
5 08/17/2016 06:36:08 -0.07,-134.07 -0.61,-136.36 261.63 80
6 08/18/2016 06:12:49 -0.05,-134.01 0.53,-131.37 300.17 80
7 08/19/2016 18:34:19 0.08,-133.93 0.54,-135.92 227.89 80
8 08/20/2016 18:10:59 0.05,-133.86 -0.60,-130.93 333.55 80
9 08/22/2016 06:32:38
